Location: Bastogne Gables
(35.1554°N, 78.9900°W)
Time: 02:16:56
(UTC+00:00)

Cosmos 1076 Rocket - Pass Details

Date: 29 October 2020
Orbit: 589 x 613 km, 82.5° (Epoch: 26 November)

Event Time Altitude Azimuth Distance (km) Brightness Sun altitude
Rises 23:20:22 0° 6° (N) 2,828 6.8 -12.1°
Reaches altitude 10° 23:22:51 10° 19° (NNE) 1,924 5.8 -12.6°
Maximum altitude 23:26:28 27° 78° (ENE) 1,162 4.4 -13.3°
Drops below altitude 10° 23:30:04 10° 136° (SE) 1,921 5.7 -14.1°
Sets 23:32:32 0° 148° (SSE) 2,822 6.7 -14.6°
